Home   Weather   Manaus   Past weeks

Flag for Brazil Past Weather in Manaus, Amazonas, Brazil — Yesterday and Last 2 Weeks

Now
77 °F

Light rain. Broken clouds.


Feels Like: 78 °F
Forecast: 76 / 83 °F
Wind: 9 mph from Northeast

Location: Manaus Aeroporto

Current Time: Feb 24, 2017 at 3:30:49 pm

Latest Report: Feb 24, 2017 at 3:00 pm


Visibility: N/A

Pressure: N/A

Humidity: 89%

Dew Point: 73 °F

Location of ManausLocation

Past Weather in Manaus — Graph

°F

Manaus Temperature Yesterday

Maximum temperature yesterday: 88 °F (at 2:00 pm)
Minimum temperature yesterday: 77 °F (at 3:00 am)
Average temperature yesterday: 81 °F

High & Low Weather Summary for the Past Weeks

 TemperatureHumidityPressure
High90 °F (Feb 13, 1:00 pm)94% (Feb 9, 9:00 pm)30.15 "Hg (Feb 9, 9:00 pm)
Low73 °F (Feb 15, 1:15 pm)52% (Feb 13, 3:00 pm)29.68 "Hg (Feb 13, 4:00 pm)
Average79 °F80%29.86 "Hg
* Reported Feb 9 2:00 pm — Feb 24 2:00 pm, Manaus, Weather by CustomWeather, © 2017

Note: Actual official high and low records may vary slightly from our data, if they occured in-between our weather recording intervals... More about our weather records

Advertising

Manaus Weather History for the Previous 24 Hours

Scroll right to see more
 ConditionsComfort  
Time TempWeatherWind HumidityBarometerVisibility
2:00 pm
Fri, Feb 24
77 °FLight rain. Broken clouds.8 mph94%N/A4 mi
1:00 pm77 °FThunderstorms. Partly sunny.14 mph89%N/A1 mi
12:25 pm77 °FThunderstorms. Partly sunny.13 mph89%N/A1 mi
11:00 am79 °FLight rain. Partly sunny.9 mph79%N/A1 mi
10:00 am82 °FBroken clouds.6 mph70%29.92 "HgN/A
9:00 am84 °FPartly sunny.3 mph66%29.92 "HgN/A
8:00 am81 °FPartly sunny.2 mph79%29.89 "HgN/A
7:00 am79 °FSunny.3 mph84%29.86 "Hg10 mi
6:00 am77 °FPassing clouds.5 mph83%29.83 "HgN/A
5:00 am77 °FPassing clouds.6 mph83%29.83 "HgN/A
4:00 am79 °FPassing clouds.3 mph89%29.83 "HgN/A
3:00 am79 °FPassing clouds.3 mph89%29.83 "HgN/A
2:00 am79 °FClear.3 mph84%29.83 "Hg10 mi
1:00 am81 °FClear.3 mph79%29.86 "Hg10 mi
12:00 am81 °FClear.6 mph79%29.86 "Hg10 mi
11:00 pm
Thu, Feb 23
81 °FClear.3 mph74%29.86 "Hg10 mi
10:00 pm81 °FClear.5 mph79%29.86 "Hg10 mi
9:00 pm82 °FClear.3 mph74%29.80 "Hg10 mi
8:00 pm81 °FClear.3 mph79%29.77 "Hg10 mi
7:00 pm82 °FPassing clouds.5 mph70%29.74 "HgN/A
6:00 pm84 °FPassing clouds.7 mph70%29.71 "HgN/A
5:00 pm86 °FScattered clouds.7 mph66%29.71 "HgN/A
4:00 pm86 °FScattered clouds.8 mph62%29.74 "HgN/A
3:00 pm88 °FScattered clouds.7 mph62%29.77 "HgN/A
Weather by CustomWeather, © 2017

See weather overviewHow to use our weather pages